owner,sensor,date,latitude,longitude,vertical_datum,wind_speed,wind_to_direction,wind_speed_of_gust,qcFlag 
DISL,ioos:station:DISL:DISL:1,2019-10-01T01:10:00Z,30.2513,-88.0778,9.68,0.66,199.5,-9999.0,'11111222,11111222,99999222' 
DISL,ioos:station:DISL:DISL:1,2019-10-01T02:10:00Z,30.2513,-88.0778,9.68,0.89,187.5,-9999.0,'11111222,11111222,99999222' 
DISL,ioos:station:DISL:DISL:1,2019-10-01T03:10:00Z,30.2513,-88.0778,9.68,0.81,185.0,-9999.0,'11111222,11111222,99999222' 
DISL,ioos:station:DISL:DISL:1,2019-10-01T04:10:00Z,30.2513,-88.0778,9.68,0.31,173.0,-9999.0,'11111222,11111222,99999222' 
DISL,ioos:station:DISL:DISL:1,2019-10-01T05:10:00Z,30.2513,-88.0778,9.68,0.04,173.2,-9999.0,'11111222,11111222,99999222' 
DISL,ioos:station:DISL:DISL:1,2019-10-01T06:10:00Z,30.2513,-88.0778,9.68,0.13,175.6,-9999.0,'11111222,11111222,99999222' 
DISL,ioos:station:DISL:DISL:1,2019-10-01T07:10:00Z,30.2513,-88.0778,9.68,0.0,0.0,-9999.0,'11111222,11111222,99999222' 
DISL,ioos:station:DISL:DISL:1,2019-10-01T08:10:00Z,30.2513,-88.0778,9.68,0.1,187.8,-9999.0,'11111222,11111222,99999222' 
DISL,ioos:station:DISL:DISL:1,2019-10-01T09:10:00Z,30.2513,-88.0778,9.68,0.0,0.0,-9999.0,'11111222,11111222,99999222' 
DISL,ioos:station:DISL:DISL:1,2019-10-01T10:10:00Z,30.2513,-88.0778,9.68,1.89,333.4,-9999.0,'11111222,11111222,99999222' 
DISL,ioos:station:DISL:DISL:1,2019-10-01T11:10:00Z,30.2513,-88.0778,9.68,3.5,353.6,-9999.0,'11111222,11111222,99999222' 
DISL,ioos:station:DISL:DISL:1,2019-10-01T12:10:00Z,30.2513,-88.0778,9.68,4.36,350.4,-9999.0,'11111222,11111222,99999222' 
DISL,ioos:station:DISL:DISL:1,2019-10-01T13:10:00Z,30.2513,-88.0778,9.68,4.54,1.456,-9999.0,'11111222,11111222,99999222' 
DISL,ioos:station:DISL:DISL:1,2019-10-01T14:10:00Z,30.2513,-88.0778,9.68,5.78,12.45,-9999.0,'11111222,11111222,99999222' 
DISL,ioos:station:DISL:DISL:1,2019-10-01T15:10:00Z,30.2513,-88.0778,9.68,4.81,12.94,-9999.0,'11111222,11111222,99999222' 
DISL,ioos:station:DISL:DISL:1,2019-10-01T16:10:00Z,30.2513,-88.0778,9.68,4.87,17.65,-9999.0,'11111222,11111222,99999222' 
DISL,ioos:station:DISL:DISL:1,2019-10-01T17:10:00Z,30.2513,-88.0778,9.68,5.15,6.547,-9999.0,'11111222,11111222,99999222' 
DISL,ioos:station:DISL:DISL:1,2019-10-01T18:10:00Z,30.2513,-88.0778,9.68,3.77,0.311,-9999.0,'11111222,11111222,99999222' 
DISL,ioos:station:DISL:DISL:1,2019-10-01T19:10:00Z,30.2513,-88.0778,9.68,1.48,11.32,-9999.0,'11111222,11111222,99999222' 
DISL,ioos:station:DISL:DISL:1,2019-10-01T20:10:00Z,30.2513,-88.0778,9.68,2.67,118.9,-9999.0,'11111222,11111222,99999222' 
DISL,ioos:station:DISL:DISL:1,2019-10-01T21:10:00Z,30.2513,-88.0778,9.68,2.8,142.0,-9999.0,'11111222,11111222,99999222' 
DISL,ioos:station:DISL:DISL:1,2019-10-01T22:10:00Z,30.2513,-88.0778,9.68,2.31,147.1,-9999.0,'11111222,11111222,99999222' 
DISL,ioos:station:DISL:DISL:1,2019-10-01T23:10:00Z,30.2513,-88.0778,9.68,2.95,153.5,-9999.0,'11111222,11111222,99999222' 
DISL,ioos:station:DISL:DISL:1,2019-10-02T00:10:00Z,30.2513,-88.0778,9.68,2.94,175.2,-9999.0,'11111222,11111222,99999222' 
DISL,ioos:station:DISL:DISL:1,2019-10-02T01:10:00Z,30.2513,-88.0778,9.68,2.63,162.5,-9999.0,'11111222,11111222,99999222' 
DISL,ioos:station:DISL:DISL:1,2019-10-02T02:10:00Z,30.2513,-88.0778,9.68,2.08,175.5,-9999.0,'11111222,11111222,99999222' 
DISL,ioos:station:DISL:DISL:1,2019-10-02T03:10:00Z,30.2513,-88.0778,9.68,2.32,168.9,-9999.0,'11111222,11111222,99999222' 
DISL,ioos:station:DISL:DISL:1,2019-10-02T04:10:00Z,30.2513,-88.0778,9.68,1.36,184.5,-9999.0,'11111222,11111222,99999222' 
DISL,ioos:station:DISL:DISL:1,2019-10-02T05:10:00Z,30.2513,-88.0778,9.68,1.34,190.0,-9999.0,'11111222,11111222,99999222' 
DISL,ioos:station:DISL:DISL:1,2019-10-02T06:10:00Z,30.2513,-88.0778,9.68,0.58,207.4,-9999.0,'11111222,11111222,99999222' 
DISL,ioos:station:DISL:DISL:1,2019-10-02T07:10:00Z,30.2513,-88.0778,9.68,0.0,0.0,-9999.0,'11111222,11111222,99999222' 
DISL,ioos:station:DISL:DISL:1,2019-10-02T08:10:00Z,30.2513,-88.0778,9.68,0.81,292.5,-9999.0,'11111222,11111222,99999222' 
DISL,ioos:station:DISL:DISL:1,2019-10-02T09:10:00Z,30.2513,-88.0778,9.68,0.52,305.2,-9999.0,'11111222,11111222,99999222' 
DISL,ioos:station:DISL:DISL:1,2019-10-02T10:10:00Z,30.2513,-88.0778,9.68,2.03,37.97,-9999.0,'11111222,11111222,99999222' 
DISL,ioos:station:DISL:DISL:1,2019-10-02T11:10:00Z,30.2513,-88.0778,9.68,2.8,40.17,-9999.0,'11111222,11111222,99999222' 
DISL,ioos:station:DISL:DISL:1,2019-10-02T12:10:00Z,30.2513,-88.0778,9.68,3.47,53.06,-9999.0,'11111222,11111222,99999222' 
DISL,ioos:station:DISL:DISL:1,2019-10-02T13:10:00Z,30.2513,-88.0778,9.68,3.91,46.65,-9999.0,'11111222,11111222,99999222' 
DISL,ioos:station:DISL:DISL:1,2019-10-02T14:10:00Z,30.2513,-88.0778,9.68,4.43,47.55,-9999.0,'11111222,11111222,99999222' 
DISL,ioos:station:DISL:DISL:1,2019-10-02T15:10:00Z,30.2513,-88.0778,9.68,4.08,51.37,-9999.0,'11111222,11111222,99999222' 
DISL,ioos:station:DISL:DISL:1,2019-10-02T16:10:00Z,30.2513,-88.0778,9.68,3.52,78.06,-9999.0,'11111222,11111222,99999222' 
DISL,ioos:station:DISL:DISL:1,2019-10-02T17:10:00Z,30.2513,-88.0778,9.68,2.3,77.4,-9999.0,'11111222,11111222,99999222' 
DISL,ioos:station:DISL:DISL:1,2019-10-02T18:10:00Z,30.2513,-88.0778,9.68,3.3,133.6,-9999.0,'11111222,11111222,99999222' 
DISL,ioos:station:DISL:DISL:1,2019-10-02T19:10:00Z,30.2513,-88.0778,9.68,3.64,132.1,-9999.0,'11111222,11111222,99999222' 
DISL,ioos:station:DISL:DISL:1,2019-10-02T20:10:00Z,30.2513,-88.0778,9.68,2.74,144.2,-9999.0,'11111222,11111222,99999222' 
DISL,ioos:station:DISL:DISL:1,2019-10-02T21:10:00Z,30.2513,-88.0778,9.68,2.19,148.1,-9999.0,'11111222,11111222,99999222' 
DISL,ioos:station:DISL:DISL:1,2019-10-02T22:10:00Z,30.2513,-88.0778,9.68,2.97,165.9,-9999.0,'11111222,11111222,99999222' 
DISL,ioos:station:DISL:DISL:1,2019-10-02T23:10:00Z,30.2513,-88.0778,9.68,2.47,168.0,-9999.0,'11111222,11111222,99999222' 
DISL,ioos:station:DISL:DISL:1,2019-10-02T23:40:00Z,30.2513,-88.0778,9.68,2.56,161.2,-9999.0,'11111222,11111222,99999222' 
DISL,ioos:station:DISL:DISL:1,2019-10-03T01:10:00Z,30.2513,-88.0778,9.68,2.37,175.7,-9999.0,'11111222,11111222,99999222' 
DISL,ioos:station:DISL:DISL:1,2019-10-03T02:10:00Z,30.2513,-88.0778,9.68,2.43,170.4,-9999.0,'11111222,11111222,99999222' 
DISL,ioos:station:DISL:DISL:1,2019-10-03T03:10:00Z,30.2513,-88.0778,9.68,2.92,163.2,-9999.0,'11111222,11111222,99999222' 
DISL,ioos:station:DISL:DISL:1,2019-10-03T04:10:00Z,30.2513,-88.0778,9.68,1.68,192.5,-9999.0,'11111222,11111222,99999222' 
DISL,ioos:station:DISL:DISL:1,2019-10-03T05:10:00Z,30.2513,-88.0778,9.68,1.34,165.7,-9999.0,'11111222,11111222,99999222' 
DISL,ioos:station:DISL:DISL:1,2019-10-03T06:10:00Z,30.2513,-88.0778,9.68,1.26,176.1,-9999.0,'11111222,11111222,99999222' 
DISL,ioos:station:DISL:DISL:1,2019-10-03T07:10:00Z,30.2513,-88.0778,9.68,0.36,216.7,-9999.0,'11111222,11111222,99999222' 
DISL,ioos:station:DISL:DISL:1,2019-10-03T08:10:00Z,30.2513,-88.0778,9.68,0.8,292.7,-9999.0,'11111222,11111222,99999222' 
DISL,ioos:station:DISL:DISL:1,2019-10-03T09:10:00Z,30.2513,-88.0778,9.68,1.43,297.7,-9999.0,'11111222,11111222,99999222' 
DISL,ioos:station:DISL:DISL:1,2019-10-03T10:10:00Z,30.2513,-88.0778,9.68,1.21,306.0,-9999.0,'11111222,11111222,99999222' 
DISL,ioos:station:DISL:DISL:1,2019-10-03T11:10:00Z,30.2513,-88.0778,9.68,3.28,345.3,-9999.0,'11111222,11111222,99999222' 
DISL,ioos:station:DISL:DISL:1,2019-10-03T12:10:00Z,30.2513,-88.0778,9.68,3.97,356.4,-9999.0,'11111222,11111222,99999222' 
DISL,ioos:station:DISL:DISL:1,2019-10-03T13:10:00Z,30.2513,-88.0778,9.68,4.91,1.572,-9999.0,'11111222,11111222,99999222' 
DISL,ioos:station:DISL:DISL:1,2019-10-03T14:10:00Z,30.2513,-88.0778,9.68,4.97,3.393,-9999.0,'11111222,11111222,99999222' 
DISL,ioos:station:DISL:DISL:1,2019-10-03T15:10:00Z,30.2513,-88.0778,9.68,4.39,8.32,-9999.0,'11111222,11111222,99999222' 
DISL,ioos:station:DISL:DISL:1,2019-10-03T16:10:00Z,30.2513,-88.0778,9.68,3.3,12.64,-9999.0,'11111222,11111222,99999222' 
DISL,ioos:station:DISL:DISL:1,2019-10-03T17:10:00Z,30.2513,-88.0778,9.68,3.04,23.73,-9999.0,'11111222,11111222,99999222' 
DISL,ioos:station:DISL:DISL:1,2019-10-03T18:10:00Z,30.2513,-88.0778,9.68,0.94,47.12,-9999.0,'11111222,11111222,99999222' 
DISL,ioos:station:DISL:DISL:1,2019-10-03T19:10:00Z,30.2513,-88.0778,9.68,1.19,97.2,-9999.0,'11111222,11111222,99999222' 
DISL,ioos:station:DISL:DISL:1,2019-10-03T20:10:00Z,30.2513,-88.0778,9.68,2.3,187.3,-9999.0,'11111222,11111222,99999222' 
DISL,ioos:station:DISL:DISL:1,2019-10-03T21:10:00Z,30.2513,-88.0778,9.68,2.12,211.2,-9999.0,'11111222,11111222,99999222' 
DISL,ioos:station:DISL:DISL:1,2019-10-03T22:10:00Z,30.2513,-88.0778,9.68,2.18,213.6,-9999.0,'11111222,11111222,99999222' 
DISL,ioos:station:DISL:DISL:1,2019-10-03T23:10:00Z,30.2513,-88.0778,9.68,1.82,221.1,-9999.0,'11111222,11111222,99999222' 
DISL,ioos:station:DISL:DISL:1,2019-10-03T23:40:00Z,30.2513,-88.0778,9.68,1.78,213.7,-9999.0,'11111222,11111222,99999222' 
DISL,ioos:station:DISL:DISL:1,2019-10-04T01:10:00Z,30.2513,-88.0778,9.68,1.67,213.7,-9999.0,'11111222,11111222,99999222' 
DISL,ioos:station:DISL:DISL:1,2019-10-04T02:10:00Z,30.2513,-88.0778,9.68,1.51,204.5,-9999.0,'11111222,11111222,99999222' 
DISL,ioos:station:DISL:DISL:1,2019-10-04T03:10:00Z,30.2513,-88.0778,9.68,1.19,208.4,-9999.0,'11111222,11111222,99999222' 
DISL,ioos:station:DISL:DISL:1,2019-10-04T03:40:00Z,30.2513,-88.0778,9.68,1.0,196.8,-9999.0,'11111222,11111222,99999222' 
DISL,ioos:station:DISL:DISL:1,2019-10-04T05:10:00Z,30.2513,-88.0778,9.68,1.59,192.2,-9999.0,'11111222,11111222,99999222' 
DISL,ioos:station:DISL:DISL:1,2019-10-04T06:10:00Z,30.2513,-88.0778,9.68,1.37,185.1,-9999.0,'11111222,11111222,99999222' 
DISL,ioos:station:DISL:DISL:1,2019-10-04T07:10:00Z,30.2513,-88.0778,9.68,1.01,247.6,-9999.0,'11111222,11111222,99999222' 
DISL,ioos:station:DISL:DISL:1,2019-10-04T08:10:00Z,30.2513,-88.0778,9.68,1.07,269.5,-9999.0,'11111222,11111222,99999222' 
DISL,ioos:station:DISL:DISL:1,2019-10-04T09:10:00Z,30.2513,-88.0778,9.68,0.11,283.0,-9999.0,'11111222,11111222,99999222' 
DISL,ioos:station:DISL:DISL:1,2019-10-04T10:10:00Z,30.2513,-88.0778,9.68,0.72,266.9,-9999.0,'11111222,11111222,99999222' 
DISL,ioos:station:DISL:DISL:1,2019-10-04T11:10:00Z,30.2513,-88.0778,9.68,0.5,295.4,-9999.0,'11111222,11111222,99999222' 
DISL,ioos:station:DISL:DISL:1,2019-10-04T12:10:00Z,30.2513,-88.0778,9.68,1.06,292.3,-9999.0,'11111222,11111222,99999222' 
DISL,ioos:station:DISL:DISL:1,2019-10-04T13:10:00Z,30.2513,-88.0778,9.68,1.51,332.1,-9999.0,'11111222,11111222,99999222' 
DISL,ioos:station:DISL:DISL:1,2019-10-04T14:10:00Z,30.2513,-88.0778,9.68,1.43,342.0,-9999.0,'11111222,11111222,99999222' 
DISL,ioos:station:DISL:DISL:1,2019-10-04T15:10:00Z,30.2513,-88.0778,9.68,1.27,30.46,-9999.0,'11111222,11111222,99999222' 
DISL,ioos:station:DISL:DISL:1,2019-10-04T16:10:00Z,30.2513,-88.0778,9.68,1.34,87.9,-9999.0,'11111222,11111222,99999222' 
DISL,ioos:station:DISL:DISL:1,2019-10-04T17:10:00Z,30.2513,-88.0778,9.68,1.64,100.6,-9999.0,'11111222,11111222,99999222' 
DISL,ioos:station:DISL:DISL:1,2019-10-04T18:10:00Z,30.2513,-88.0778,9.68,1.67,182.0,-9999.0,'11111222,11111222,99999222' 
DISL,ioos:station:DISL:DISL:1,2019-10-04T19:10:00Z,30.2513,-88.0778,9.68,2.69,185.1,-9999.0,'11111222,11111222,99999222' 
DISL,ioos:station:DISL:DISL:1,2019-10-04T20:10:00Z,30.2513,-88.0778,9.68,2.53,182.9,-9999.0,'11111222,11111222,99999222' 
DISL,ioos:station:DISL:DISL:1,2019-10-04T21:10:00Z,30.2513,-88.0778,9.68,2.41,187.8,-9999.0,'11111222,11111222,99999222' 
DISL,ioos:station:DISL:DISL:1,2019-10-04T22:10:00Z,30.2513,-88.0778,9.68,2.84,207.4,-9999.0,'11111222,11111222,99999222' 
DISL,ioos:station:DISL:DISL:1,2019-10-04T23:10:00Z,30.2513,-88.0778,9.68,2.57,194.6,-9999.0,'11111222,11111222,99999222' 
DISL,ioos:station:DISL:DISL:1,2019-10-05T00:10:00Z,30.2513,-88.0778,9.68,1.66,241.0,-9999.0,'11111222,11111222,99999222' 
DISL,ioos:station:DISL:DISL:1,2019-10-05T01:10:00Z,30.2513,-88.0778,9.68,1.99,253.9,-9999.0,'11111222,11111222,99999222' 
DISL,ioos:station:DISL:DISL:1,2019-10-05T02:10:00Z,30.2513,-88.0778,9.68,3.57,301.3,-9999.0,'11111222,11111222,99999222' 
DISL,ioos:station:DISL:DISL:1,2019-10-05T03:10:00Z,30.2513,-88.0778,9.68,4.1,302.0,-9999.0,'11111222,11111222,99999222' 
DISL,ioos:station:DISL:DISL:1,2019-10-05T04:10:00Z,30.2513,-88.0778,9.68,5.67,331.4,-9999.0,'11111222,11111222,99999222' 
DISL,ioos:station:DISL:DISL:1,2019-10-05T05:10:00Z,30.2513,-88.0778,9.68,2.39,346.5,-9999.0,'11111222,11111222,99999222' 
DISL,ioos:station:DISL:DISL:1,2019-10-05T06:10:00Z,30.2513,-88.0778,9.68,2.34,26.14,-9999.0,'11111222,11111222,99999222' 
DISL,ioos:station:DISL:DISL:1,2019-10-05T07:10:00Z,30.2513,-88.0778,9.68,3.91,344.8,-9999.0,'11111222,11111222,99999222' 
DISL,ioos:station:DISL:DISL:1,2019-10-05T08:10:00Z,30.2513,-88.0778,9.68,3.05,47.21,-9999.0,'11111222,11111222,99999222' 
DISL,ioos:station:DISL:DISL:1,2019-10-05T09:10:00Z,30.2513,-88.0778,9.68,2.7,95.7,-9999.0,'11111222,11111222,99999222' 
DISL,ioos:station:DISL:DISL:1,2019-10-05T10:10:00Z,30.2513,-88.0778,9.68,3.96,61.09,-9999.0,'11111222,11111222,99999222' 
DISL,ioos:station:DISL:DISL:1,2019-10-05T11:10:00Z,30.2513,-88.0778,9.68,3.75,47.02,-9999.0,'11111222,11111222,99999222' 
DISL,ioos:station:DISL:DISL:1,2019-10-05T12:10:00Z,30.2513,-88.0778,9.68,3.63,45.43,-9999.0,'11111222,11111222,99999222' 
DISL,ioos:station:DISL:DISL:1,2019-10-05T13:10:00Z,30.2513,-88.0778,9.68,2.92,59.6,-9999.0,'11111222,11111222,99999222' 
DISL,ioos:station:DISL:DISL:1,2019-10-05T14:10:00Z,30.2513,-88.0778,9.68,3.88,64.18,-9999.0,'11111222,11111222,99999222' 
DISL,ioos:station:DISL:DISL:1,2019-10-05T15:10:00Z,30.2513,-88.0778,9.68,3.13,83.0,-9999.0,'11111222,11111222,99999222' 
DISL,ioos:station:DISL:DISL:1,2019-10-05T16:10:00Z,30.2513,-88.0778,9.68,3.26,114.3,-9999.0,'11111222,11111222,99999222' 
DISL,ioos:station:DISL:DISL:1,2019-10-05T17:10:00Z,30.2513,-88.0778,9.68,4.44,126.3,-9999.0,'11111222,11111222,99999222' 
DISL,ioos:station:DISL:DISL:1,2019-10-05T18:10:00Z,30.2513,-88.0778,9.68,4.84,140.5,-9999.0,'11111222,11111222,99999222' 
DISL,ioos:station:DISL:DISL:1,2019-10-05T19:10:00Z,30.2513,-88.0778,9.68,5.02,146.4,-9999.0,'11111222,11111222,99999222' 
DISL,ioos:station:DISL:DISL:1,2019-10-05T20:10:00Z,30.2513,-88.0778,9.68,3.88,139.3,-9999.0,'11111222,11111222,99999222' 
DISL,ioos:station:DISL:DISL:1,2019-10-05T21:10:00Z,30.2513,-88.0778,9.68,3.44,146.9,-9999.0,'11111222,11111222,99999222' 
DISL,ioos:station:DISL:DISL:1,2019-10-05T22:10:00Z,30.2513,-88.0778,9.68,3.7,144.9,-9999.0,'11111222,11111222,99999222' 
DISL,ioos:station:DISL:DISL:1,2019-10-05T23:10:00Z,30.2513,-88.0778,9.68,3.39,143.5,-9999.0,'11111222,11111222,99999222' 
DISL,ioos:station:DISL:DISL:1,2019-10-06T00:10:00Z,30.2513,-88.0778,9.68,2.98,137.6,-9999.0,'11111222,11111222,99999222' 
DISL,ioos:station:DISL:DISL:1,2019-10-06T01:10:00Z,30.2513,-88.0778,9.68,2.35,129.5,-9999.0,'11111222,11111222,99999222' 
DISL,ioos:station:DISL:DISL:1,2019-10-06T02:10:00Z,30.2513,-88.0778,9.68,2.43,120.7,-9999.0,'11111222,11111222,99999222' 
DISL,ioos:station:DISL:DISL:1,2019-10-06T03:10:00Z,30.2513,-88.0778,9.68,3.48,108.7,-9999.0,'11111222,11111222,99999222' 
DISL,ioos:station:DISL:DISL:1,2019-10-06T04:10:00Z,30.2513,-88.0778,9.68,3.21,96.3,-9999.0,'11111222,11111222,99999222' 
DISL,ioos:station:DISL:DISL:1,2019-10-06T05:10:00Z,30.2513,-88.0778,9.68,4.28,66.66,-9999.0,'11111222,11111222,99999222' 
DISL,ioos:station:DISL:DISL:1,2019-10-06T06:10:00Z,30.2513,-88.0778,9.68,4.44,69.09,-9999.0,'11111222,11111222,99999222' 
DISL,ioos:station:DISL:DISL:1,2019-10-06T07:10:00Z,30.2513,-88.0778,9.68,5.3,77.17,-9999.0,'11111222,11111222,99999222' 
DISL,ioos:station:DISL:DISL:1,2019-10-06T08:10:00Z,30.2513,-88.0778,9.68,5.33,84.0,-9999.0,'11111222,11111222,99999222' 
DISL,ioos:station:DISL:DISL:1,2019-10-06T09:10:00Z,30.2513,-88.0778,9.68,6.17,76.63,-9999.0,'11111222,11111222,99999222' 
DISL,ioos:station:DISL:DISL:1,2019-10-06T10:10:00Z,30.2513,-88.0778,9.68,7.93,73.86,-9999.0,'11111222,11111222,99999222' 
DISL,ioos:station:DISL:DISL:1,2019-10-06T11:10:00Z,30.2513,-88.0778,9.68,7.52,60.58,-9999.0,'11111222,11111222,99999222' 
DISL,ioos:station:DISL:DISL:1,2019-10-06T12:10:00Z,30.2513,-88.0778,9.68,9.45,75.78,-9999.0,'11111222,11111222,99999222' 
DISL,ioos:station:DISL:DISL:1,2019-10-06T13:10:00Z,30.2513,-88.0778,9.68,9.41,98.3,-9999.0,'11111222,11111222,99999222' 
DISL,ioos:station:DISL:DISL:1,2019-10-06T14:10:00Z,30.2513,-88.0778,9.68,8.93,96.6,-9999.0,'11111222,11111222,99999222' 
DISL,ioos:station:DISL:DISL:1,2019-10-06T15:10:00Z,30.2513,-88.0778,9.68,6.17,80.6,-9999.0,'11111222,11111222,99999222' 
DISL,ioos:station:DISL:DISL:1,2019-10-06T16:10:00Z,30.2513,-88.0778,9.68,7.16,85.4,-9999.0,'11111222,11111222,99999222' 
DISL,ioos:station:DISL:DISL:1,2019-10-06T17:10:00Z,30.2513,-88.0778,9.68,7.37,91.0,-9999.0,'11111222,11111222,99999222' 
DISL,ioos:station:DISL:DISL:1,2019-10-06T18:10:00Z,30.2513,-88.0778,9.68,7.4,84.8,-9999.0,'11111222,11111222,99999222' 
DISL,ioos:station:DISL:DISL:1,2019-10-06T19:10:00Z,30.2513,-88.0778,9.68,9.1,90.1,-9999.0,'11111222,11111222,99999222' 
DISL,ioos:station:DISL:DISL:1,2019-10-06T20:10:00Z,30.2513,-88.0778,9.68,7.61,90.1,-9999.0,'11111222,11111222,99999222' 
DISL,ioos:station:DISL:DISL:1,2019-10-06T21:10:00Z,30.2513,-88.0778,9.68,6.26,95.4,-9999.0,'11111222,11111222,99999222' 
DISL,ioos:station:DISL:DISL:1,2019-10-06T22:10:00Z,30.2513,-88.0778,9.68,5.75,94.3,-9999.0,'11111222,11111222,99999222' 
DISL,ioos:station:DISL:DISL:1,2019-10-06T23:10:00Z,30.2513,-88.0778,9.68,4.34,89.0,-9999.0,'11111222,11111222,99999222' 
DISL,ioos:station:DISL:DISL:1,2019-10-07T00:10:00Z,30.2513,-88.0778,9.68,6.26,110.7,-9999.0,'11111222,11111222,99999222' 
DISL,ioos:station:DISL:DISL:1,2019-10-07T01:10:00Z,30.2513,-88.0778,9.68,5.47,106.8,-9999.0,'11111222,11111222,99999222' 
DISL,ioos:station:DISL:DISL:1,2019-10-07T02:10:00Z,30.2513,-88.0778,9.68,5.61,113.3,-9999.0,'11111222,11111222,99999222' 
DISL,ioos:station:DISL:DISL:1,2019-10-07T03:10:00Z,30.2513,-88.0778,9.68,4.61,71.14,-9999.0,'11111222,11111222,99999222' 
DISL,ioos:station:DISL:DISL:1,2019-10-07T04:10:00Z,30.2513,-88.0778,9.68,4.71,73.36,-9999.0,'11111222,11111222,99999222' 
DISL,ioos:station:DISL:DISL:1,2019-10-07T05:10:00Z,30.2513,-88.0778,9.68,4.12,51.05,-9999.0,'11111222,11111222,99999222' 
DISL,ioos:station:DISL:DISL:1,2019-10-07T06:10:00Z,30.2513,-88.0778,9.68,4.05,44.53,-9999.0,'11111222,11111222,99999222' 
DISL,ioos:station:DISL:DISL:1,2019-10-07T07:10:00Z,30.2513,-88.0778,9.68,4.82,31.56,-9999.0,'11111222,11111222,99999222' 
DISL,ioos:station:DISL:DISL:1,2019-10-07T08:10:00Z,30.2513,-88.0778,9.68,8.77,110.1,-9999.0,'11111222,11111222,99999222' 
DISL,ioos:station:DISL:DISL:1,2019-10-07T09:10:00Z,30.2513,-88.0778,9.68,2.82,87.3,-9999.0,'11111222,11111222,99999222' 
DISL,ioos:station:DISL:DISL:1,2019-10-07T10:10:00Z,30.2513,-88.0778,9.68,5.01,62.1,-9999.0,'11111222,11111222,99999222' 
DISL,ioos:station:DISL:DISL:1,2019-10-07T11:10:00Z,30.2513,-88.0778,9.68,3.64,63.24,-9999.0,'11111222,11111222,99999222' 
DISL,ioos:station:DISL:DISL:1,2019-10-07T12:10:00Z,30.2513,-88.0778,9.68,5.49,55.48,-9999.0,'11111222,11111222,99999222' 
DISL,ioos:station:DISL:DISL:1,2019-10-07T13:10:00Z,30.2513,-88.0778,9.68,5.97,59.99,-9999.0,'11111222,11111222,99999222' 
DISL,ioos:station:DISL:DISL:1,2019-10-07T19:10:00Z,30.2513,-88.0778,9.68,1.39,55.88,-9999.0,'11111222,11111222,99999222' 
DISL,ioos:station:DISL:DISL:1,2019-10-07T20:10:00Z,30.2513,-88.0778,9.68,1.87,102.9,-9999.0,'11111222,11111222,99999222' 
DISL,ioos:station:DISL:DISL:1,2019-10-07T21:10:00Z,30.2513,-88.0778,9.68,5.38,26.07,-9999.0,'11111222,11111222,99999222' 
DISL,ioos:station:DISL:DISL:1,2019-10-07T22:10:00Z,30.2513,-88.0778,9.68,8.65,7.184,-9999.0,'11111222,11111222,99999222' 
DISL,ioos:station:DISL:DISL:1,2019-10-07T23:10:00Z,30.2513,-88.0778,9.68,9.44,5.127,-9999.0,'11111222,11111222,99999222' 
DISL,ioos:station:DISL:DISL:1,2019-10-08T00:10:00Z,30.2513,-88.0778,9.68,6.85,51.92,-9999.0,'11111222,11111222,99999222' 
DISL,ioos:station:DISL:DISL:1,2019-10-08T01:10:00Z,30.2513,-88.0778,9.68,4.89,52.09,-9999.0,'11111222,11111222,99999222' 
DISL,ioos:station:DISL:DISL:1,2019-10-08T02:10:00Z,30.2513,-88.0778,9.68,5.62,15.09,-9999.0,'11111222,11111222,99999222' 
DISL,ioos:station:DISL:DISL:1,2019-10-08T03:10:00Z,30.2513,-88.0778,9.68,9.11,14.42,-9999.0,'11111222,11111222,99999222' 
DISL,ioos:station:DISL:DISL:1,2019-10-08T04:10:00Z,30.2513,-88.0778,9.68,9.02,15.97,-9999.0,'11111222,11111222,99999222' 
DISL,ioos:station:DISL:DISL:1,2019-10-08T05:10:00Z,30.2513,-88.0778,9.68,8.8,5.5,-9999.0,'11111222,11111222,99999222' 
DISL,ioos:station:DISL:DISL:1,2019-10-08T06:10:00Z,30.2513,-88.0778,9.68,8.61,6.767,-9999.0,'11111222,11111222,99999222' 
DISL,ioos:station:DISL:DISL:1,2019-10-08T07:10:00Z,30.2513,-88.0778,9.68,8.63,13.5,-9999.0,'11111222,11111222,99999222' 
DISL,ioos:station:DISL:DISL:1,2019-10-08T08:10:00Z,30.2513,-88.0778,9.68,8.82,18.16,-9999.0,'11111222,11111222,99999222' 
DISL,ioos:station:DISL:DISL:1,2019-10-08T09:10:00Z,30.2513,-88.0778,9.68,8.74,18.17,-9999.0,'11111222,11111222,99999222' 
DISL,ioos:station:DISL:DISL:1,2019-10-08T10:10:00Z,30.2513,-88.0778,9.68,8.1,22.05,-9999.0,'11111222,11111222,99999222' 
DISL,ioos:station:DISL:DISL:1,2019-10-08T11:10:00Z,30.2513,-88.0778,9.68,7.97,25.15,-9999.0,'11111222,11111222,99999222' 
DISL,ioos:station:DISL:DISL:1,2019-10-08T12:10:00Z,30.2513,-88.0778,9.68,8.65,19.21,-9999.0,'11111222,11111222,99999222' 
DISL,ioos:station:DISL:DISL:1,2019-10-08T13:10:00Z,30.2513,-88.0778,9.68,8.68,19.28,-9999.0,'11111222,11111222,99999222' 
DISL,ioos:station:DISL:DISL:1,2019-10-08T14:10:00Z,30.2513,-88.0778,9.68,8.69,19.91,-9999.0,'11111222,11111222,99999222' 
DISL,ioos:station:DISL:DISL:1,2019-10-08T15:10:00Z,30.2513,-88.0778,9.68,8.51,12.73,-9999.0,'11111222,11111222,99999222' 
DISL,ioos:station:DISL:DISL:1,2019-10-08T16:10:00Z,30.2513,-88.0778,9.68,7.57,10.52,-9999.0,'11111222,11111222,99999222' 
DISL,ioos:station:DISL:DISL:1,2019-10-08T17:10:00Z,30.2513,-88.0778,9.68,6.58,6.239,-9999.0,'11111222,11111222,99999222' 
DISL,ioos:station:DISL:DISL:1,2019-10-08T18:10:00Z,30.2513,-88.0778,9.68,4.74,5.018,-9999.0,'11111222,11111222,99999222' 
DISL,ioos:station:DISL:DISL:1,2019-10-08T19:10:00Z,30.2513,-88.0778,9.68,3.75,350.5,-9999.0,'11111222,11111222,99999222' 
DISL,ioos:station:DISL:DISL:1,2019-10-08T20:10:00Z,30.2513,-88.0778,9.68,2.23,329.0,-9999.0,'11111222,11111222,99999222' 
DISL,ioos:station:DISL:DISL:1,2019-10-08T21:10:00Z,30.2513,-88.0778,9.68,0.73,193.0,-9999.0,'11111222,11111222,99999222' 
DISL,ioos:station:DISL:DISL:1,2019-10-08T22:10:00Z,30.2513,-88.0778,9.68,0.26,54.58,-9999.0,'11111222,11111222,99999222' 
DISL,ioos:station:DISL:DISL:1,2019-10-08T23:10:00Z,30.2513,-88.0778,9.68,0.5,254.4,-9999.0,'11111222,11111222,99999222' 
DISL,ioos:station:DISL:DISL:1,2019-10-09T00:10:00Z,30.2513,-88.0778,9.68,1.15,268.6,-9999.0,'11111222,11111222,99999222' 
DISL,ioos:station:DISL:DISL:1,2019-10-09T01:10:00Z,30.2513,-88.0778,9.68,1.31,268.0,-9999.0,'11111222,11111222,99999222' 
DISL,ioos:station:DISL:DISL:1,2019-10-09T02:10:00Z,30.2513,-88.0778,9.68,1.28,294.4,-9999.0,'11111222,11111222,99999222' 
DISL,ioos:station:DISL:DISL:1,2019-10-09T03:10:00Z,30.2513,-88.0778,9.68,4.91,355.2,-9999.0,'11111222,11111222,99999222' 
DISL,ioos:station:DISL:DISL:1,2019-10-09T04:10:00Z,30.2513,-88.0778,9.68,6.62,5.892,-9999.0,'11111222,11111222,99999222' 
DISL,ioos:station:DISL:DISL:1,2019-10-09T05:10:00Z,30.2513,-88.0778,9.68,6.78,10.45,-9999.0,'11111222,11111222,99999222' 
DISL,ioos:station:DISL:DISL:1,2019-10-09T06:10:00Z,30.2513,-88.0778,9.68,6.94,24.89,-9999.0,'11111222,11111222,99999222' 
DISL,ioos:station:DISL:DISL:1,2019-10-09T07:10:00Z,30.2513,-88.0778,9.68,7.01,21.78,-9999.0,'11111222,11111222,99999222' 
DISL,ioos:station:DISL:DISL:1,2019-10-09T08:10:00Z,30.2513,-88.0778,9.68,6.69,14.35,-9999.0,'11111222,11111222,99999222' 
DISL,ioos:station:DISL:DISL:1,2019-10-09T09:10:00Z,30.2513,-88.0778,9.68,7.3,15.5,-9999.0,'11111222,11111222,99999222' 